Date String (YYYY-MM-DD hh:mm:ss) UTC,Instrument flags,absolute air pressure of the measurement (hPa),sample flow rate (lpm),inlet stack bypass flow (lpm),air temperature of the measurement (°C),ambient temperature measured by the external sensor (°C),aerosol sample conditioner tube jacket temperature (°C),OPC LED temperature (°C),internal box temperature (°C),relative humidity of the measurement (%),span deviation,mass concentration of particles derived from Lorenz-Mie calculation of OPC scattering (μg/m³),mass concentration of particles derived from Lorenz-Mie calculation of OPC scattering (μg/m³),mass concentration of particles derived from Lorenz-Mie calculation of OPC scattering (μg/m³)
DateTimeUTC,F1_M11,P_M11,Q1_M11,Q2_M11,T1_M11,T2_M11,T3_M11,T4_M11,T5_M11,U1_M11,ZSPAN_M11,X0_M11,X2_M11,X1_M11
2023-09-21 01:00:00,SystemResetWarning,0827.3,4.99,000.00,027.9,025.2,000.0,036.2,029.2,19.4,0000.0,0007.53,0003.22,0002.19
2023-09-21 01:01:00,SystemResetWarning,0827.3,5.02,000.00,027.8,024.5,000.0,036.1,029.2,19.4,0000.0,0006.81,0003.19,0002.18
2023-09-21 01:02:00,SystemResetWarning,0827.3,5.00,000.00,027.7,024.7,000.0,036.1,029.1,19.4,0000.0,0007.23,0003.21,0002.18
2023-09-21 01:03:00,SystemResetWarning,0827.3,4.99,000.00,027.7,025.0,000.0,036.1,029.1,19.6,0000.0,0007.18,0003.19,0002.17
2023-09-21 01:04:00,SystemResetWarning,0827.4,5.00,000.00,027.7,025.3,000.0,036.1,029.2,19.6,0000.0,0007.26,0003.21,0002.15
2023-09-21 01:05:00,SystemResetWarning,0827.3,5.00,000.00,027.7,025.6,000.0,036.1,029.3,19.4,0000.0,0007.41,0003.22,0002.14
2023-09-21 01:06:00,SystemResetWarning,0827.4,5.01,000.00,027.7,025.9,000.0,036.1,029.3,19.4,0000.0,0007.33,0003.20,0002.13
2023-09-21 01:07:00,SystemResetWarning,0827.4,4.99,000.00,027.8,026.2,000.0,036.1,029.4,19.2,0000.0,0007.09,0003.15,0002.11
2023-09-21 01:08:00,SystemResetWarning,0827.3,4.99,000.00,027.8,026.4,000.0,036.1,029.5,19.3,0000.0,0007.07,0003.13,0002.11
2023-09-21 01:09:00,SystemResetWarning,0827.4,5.01,000.00,027.8,026.6,000.0,036.2,029.5,19.1,0000.0,0007.27,0003.09,0002.09
2023-09-21 01:10:00,SystemResetWarning,0827.3,5.01,000.00,027.9,026.7,000.0,036.2,029.6,19.2,0000.0,0007.36,0003.06,0002.09
2023-09-21 01:11:00,SystemResetWarning,0827.4,5.00,000.00,027.9,026.9,000.0,036.2,029.7,19.1,0000.0,0007.37,0003.04,0002.09
2023-09-21 01:12:00,SystemResetWarning,0827.4,5.00,000.00,028.0,026.9,000.0,036.2,029.7,19.1,0000.0,0007.38,0003.07,0002.09
2023-09-21 01:13:00,SystemResetWarning,0827.4,4.98,000.00,028.0,025.7,000.0,036.2,029.4,19.0,0000.0,0007.25,0003.06,0002.07
2023-09-21 01:14:00,SystemResetWarning,0827.3,5.01,000.00,027.8,024.6,000.0,036.2,029.2,19.1,0000.0,0007.56,0003.06,0002.04
2023-09-21 01:15:00,SystemResetWarning,0827.4,5.01,000.00,027.8,024.6,000.0,036.1,029.1,19.3,0000.0,0007.56,0003.00,0002.05
2023-09-21 01:16:00,SystemResetWarning,0827.4,4.99,000.00,027.7,024.8,000.0,036.1,029.1,19.3,0000.0,0007.52,0002.93,0002.04
2023-09-21 01:17:00,SystemResetWarning,0827.4,5.00,000.00,027.7,025.1,000.0,036.1,029.2,19.2,0000.0,0007.54,0002.92,0002.03
2023-09-21 01:18:00,SystemResetWarning,0827.4,5.00,000.00,027.7,025.5,000.0,036.1,029.2,19.2,0000.0,0007.88,0003.05,0002.04
2023-09-21 01:19:00,SystemResetWarning,0827.4,5.01,000.00,027.7,025.8,000.0,036.1,029.3,19.3,0000.0,0008.25,0003.06,0002.04
2023-09-21 01:20:00,SystemResetWarning,0827.4,5.00,000.00,027.8,026.0,000.0,036.1,029.4,19.2,0000.0,0007.81,0003.08,0002.04
2023-09-21 01:21:00,SystemResetWarning,0827.4,5.00,000.00,027.8,026.3,000.0,036.2,029.5,19.1,0000.0,0007.87,0003.09,0002.04
2023-09-21 01:22:00,SystemResetWarning,0827.4,5.00,000.00,027.8,026.5,000.0,036.2,029.5,19.1,0000.0,0008.03,0003.11,0002.02
2023-09-21 01:23:00,SystemResetWarning,0827.4,4.98,000.00,027.9,026.7,000.0,036.2,029.6,19.1,0000.0,0008.34,0003.11,0002.02
2023-09-21 01:24:00,SystemResetWarning,0827.4,4.99,000.00,027.9,026.8,000.0,036.2,029.6,19.0,0000.0,0008.71,0003.15,0002.04
2023-09-21 01:25:00,SystemResetWarning,0827.4,5.01,000.00,028.0,026.9,000.0,036.2,029.7,18.9,0000.0,0008.55,0003.13,0002.04
2023-09-21 01:26:00,SystemResetWarning,0827.4,5.00,000.00,028.0,026.9,000.0,036.3,029.7,18.9,0000.0,0008.65,0003.14,0002.04
2023-09-21 01:27:00,SystemResetWarning,0827.4,4.98,000.00,028.0,025.4,000.0,036.2,029.4,18.9,0000.0,0008.81,0003.18,0002.04
2023-09-21 01:28:00,SystemResetWarning,0827.4,5.01,000.00,027.9,024.5,000.0,036.2,029.2,19.0,0000.0,0009.26,0003.18,0002.04
2023-09-21 01:29:00,SystemResetWarning,0827.4,5.02,000.00,027.8,024.6,000.0,036.1,029.2,19.1,0000.0,0009.91,0003.12,0002.03
2023-09-21 01:30:00,SystemResetWarning,0827.4,5.00,000.00,027.7,024.8,000.0,036.1,029.2,19.2,0000.0,0010.38,0003.14,0002.03
2023-09-21 01:31:00,SystemResetWarning,0827.4,5.00,000.00,027.7,025.2,000.0,036.2,029.2,19.2,0000.0,0010.15,0003.14,0002.03
2023-09-21 01:32:00,SystemResetWarning,0827.4,5.00,000.00,027.7,025.5,000.0,036.2,029.2,19.2,0000.0,0009.77,0003.10,0002.03
2023-09-21 01:33:00,SystemResetWarning,0827.4,5.00,000.00,027.8,025.8,000.0,036.2,029.3,19.4,0000.0,0009.77,0003.04,0002.02
2023-09-21 01:34:00,SystemResetWarning,0827.6,5.00,000.00,027.8,026.1,000.0,036.2,029.4,19.3,0000.0,0009.72,0003.02,0002.01
2023-09-21 01:35:00,SystemResetWarning,0827.7,5.00,000.00,027.8,026.3,000.0,036.2,029.5,19.3,0000.0,0009.65,0002.92,0001.99
2023-09-21 01:36:00,SystemResetWarning,0827.9,4.99,000.00,027.9,026.5,000.0,036.2,029.5,19.2,0000.0,0009.49,0002.87,0001.98
2023-09-21 01:37:00,SystemResetWarning,0828.0,5.00,000.00,027.9,026.7,000.0,036.2,029.6,19.0,0000.0,0009.34,0002.83,0001.96
2023-09-21 01:38:00,SystemResetWarning,0827.7,5.00,000.00,027.9,026.8,000.0,036.2,029.6,19.0,0000.0,0009.55,0002.70,0001.95
2023-09-21 01:39:00,SystemResetWarning,0827.8,5.01,000.00,028.0,026.9,000.0,036.3,029.7,18.9,0000.0,0009.06,0002.64,0001.96
2023-09-21 01:40:00,SystemResetWarning,0827.7,5.00,000.00,028.0,027.0,000.0,036.3,029.8,18.9,0000.0,0008.35,0002.66,0001.97
2023-09-21 01:41:00,SystemResetWarning,0827.6,4.97,000.00,028.0,026.2,000.0,036.3,029.5,19.0,0000.0,0007.91,0002.71,0001.98
2023-09-21 01:42:00,SystemResetWarning,0827.4,5.00,000.00,027.9,024.7,000.0,036.2,029.2,19.1,0000.0,0007.96,0002.73,0001.97
2023-09-21 01:43:00,SystemResetWarning,0827.4,5.00,000.00,027.8,024.4,000.0,036.2,029.2,19.2,0000.0,0008.08,0002.82,0001.98
2023-09-21 01:44:00,SystemResetWarning,0827.4,5.02,000.00,027.8,024.6,000.0,036.2,029.1,19.4,0000.0,0008.02,0002.87,0001.98
2023-09-21 01:45:00,SystemResetWarning,0827.4,4.99,000.00,027.7,025.0,000.0,036.2,029.2,19.5,0000.0,0008.18,0002.88,0001.98
2023-09-21 01:46:00,SystemResetWarning,0827.4,4.99,000.00,027.7,025.3,000.0,036.2,029.2,19.6,0000.0,0007.93,0002.93,0001.99
2023-09-21 01:47:00,SystemResetWarning,0827.4,5.00,000.00,027.7,025.6,000.0,036.2,029.3,19.6,0000.0,0008.19,0003.01,0002.00
2023-09-21 01:48:00,SystemResetWarning,0827.6,5.00,000.00,027.8,025.9,000.0,036.2,029.4,19.6,0000.0,0008.48,0003.08,0002.01
2023-09-21 01:49:00,SystemResetWarning,0827.8,5.01,000.00,027.8,026.2,000.0,036.2,029.4,19.6,0000.0,0008.71,0003.10,0002.00
2023-09-21 01:50:00,SystemResetWarning,0827.6,5.00,000.00,027.8,026.4,000.0,036.2,029.5,19.6,0000.0,0008.68,0003.09,0001.96
2023-09-21 01:51:00,SystemResetWarning,0827.5,4.99,000.00,027.9,026.5,000.0,036.2,029.6,19.7,0000.0,0008.86,0003.10,0001.94
2023-09-21 01:52:00,SystemResetWarning,0827.5,4.99,000.00,027.9,026.7,000.0,036.2,029.6,19.6,0000.0,0008.72,0003.03,0001.93
2023-09-21 01:53:00,SystemResetWarning,0827.6,5.01,000.00,027.9,026.8,000.0,036.2,029.7,19.7,0000.0,0008.86,0002.94,0001.91
2023-09-21 01:54:00,SystemResetWarning,0827.7,5.01,000.00,028.0,026.9,000.0,036.3,029.7,19.7,0000.0,0008.86,0002.90,0001.90
2023-09-21 01:55:00,SystemResetWarning,0827.6,4.99,000.00,028.0,027.0,000.0,036.3,029.8,19.7,0000.0,0008.98,0002.92,0001.90
2023-09-21 01:56:00,SystemResetWarning,0827.6,5.01,000.00,028.1,027.1,000.0,036.3,029.8,19.8,0000.0,0009.60,0002.89,0001.91
2023-09-21 01:57:00,SystemResetWarning,0827.6,4.99,000.00,028.1,026.2,000.0,036.3,029.6,19.7,0000.0,0009.43,0002.84,0001.90
2023-09-21 01:58:00,SystemResetWarning,0827.5,5.00,000.00,028.0,024.7,000.0,036.3,029.2,19.9,0000.0,0009.07,0002.74,0001.88
2023-09-21 01:59:00,SystemResetWarning,0827.5,5.01,000.00,027.9,024.4,000.0,036.2,029.2,20.0,0000.0,0008.78,0002.69,0001.88
